Tracking 29892 objects as of 21-Nov-2024
HD Live streaming from Space Station
objects crossing your sky now

DELTA 1 DEB

Track DELTA 1 DEB now!
10-day predictions


NORAD ID: 7127
Int'l Code: 1973-086CR
Perigee: 1,469.4 km
Apogee: 1,900.6 km
Inclination: 101.9 °
Period: 119.9 minutes
Semi major axis: 8055 km
RCS: 0.0561 m2 (small)
Launch date: November 6, 1973
Source: United States (US)
Launch site: AIR FORCE WESTERN TEST RANGE (AFWTR)

Note: This is SATELLITE DEBRIS
Your satellite tracking list
Your tracking list is empty




NASA's NSSDC Master Catalog

Two Line Element Set (TLE):
1 07127U 73086CR  24325.66979972 -.00000304  00000-0 -29226-2 0  9994
2 07127 101.9332  24.5872 0267627 221.5974 296.5182 12.00673639236287
Source of the keplerian elements: AFSPC